contact:dominique.lefevre@mio.osupytheas.fr, maurice.libes@osupytheas.fr, didier.mallarino@osupytheas.fr
Project:EMSO http://www.emso-fr.org/EMSO-France
Depth: 2436.0 m
Title:EMSO Ligure Ouest : Data MII capteur AQUADOPP
Date,Latitude,Longitude,X_East,Y_North,Z_Up,Amplitude_X,Amplitude_Y,Amplitude_Z,Batterie,SoundSpeed,Heading,Pitch,Roll,Pressure,TIS,Speed,Direction
, degrees North, degrees East, m.s-1, m.s-1,m.s-1, 1, 1, 1, Volt, m.s-1, degree, degree, degree, dbar, degree_C, m.s-1, degree
2019-10-11T00:04:03,42.805,6.029,-0.05,0.037,-0.016,100.0,110.0,97.0,13.3,1505.1,324.9,-0.8,1.8,2470.459,13.27,0.062,306.5
2019-10-11T00:07:04,42.805,6.029,-0.048,0.033,-0.022,100.0,111.0,98.0,13.4,1505.2,324.8,-0.8,1.9,2470.297,13.29,0.058,304.5
2019-10-11T00:10:05,42.805,6.029,-0.076,0.024,-0.049,100.0,110.0,98.0,13.4,1505.2,324.5,-0.7,1.9,2470.139,13.3,0.079,287.5
2019-10-11T00:13:06,42.805,6.029,-0.055,0.034,-0.047,100.0,110.0,97.0,13.4,1505.3,327.2,-0.7,1.8,2470.013,13.31,0.064,301.7
2019-10-11T00:16:07,42.805,6.029,-0.058,0.035,-0.043,100.0,111.0,97.0,13.4,1505.3,324.9,-0.7,1.9,2469.979,13.31,0.067,301.1
2019-10-11T00:19:08,42.805,6.029,-0.028,0.055,-0.007,102.0,109.0,97.0,13.4,1505.3,328.5,-0.7,1.8,2469.871,13.32,0.061,333.0
2019-10-11T00:22:09,42.805,6.029,-0.056,0.052,0.005,101.0,110.0,97.0,13.3,1505.3,324.7,-0.7,1.8,2469.832,13.32,0.076,312.9
2019-10-11T00:25:10,42.805,6.029,-0.043,0.028,-0.037,99.0,110.0,98.0,13.3,1505.3,323.9,-0.7,1.8,2469.833,13.32,0.051,303.1
2019-10-11T00:28:11,42.805,6.029,-0.052,0.029,-0.027,99.0,109.0,98.0,13.3,1505.3,324.1,-0.7,1.9,2469.823,13.32,0.059,299.1
2019-10-11T00:31:12,42.805,6.029,-0.065,0.015,-0.013,100.0,110.0,97.0,13.3,1505.3,325.4,-0.7,1.8,2469.826,13.32,0.066,283.0
2019-10-11T00:34:13,42.805,6.029,-0.027,0.035,-0.005,101.0,110.0,97.0,13.3,1505.3,324.0,-0.7,1.8,2469.818,13.32,0.044,322.3
2019-10-11T00:37:14,42.805,6.029,-0.058,0.039,-0.012,101.0,109.0,98.0,13.4,1505.3,325.4,-0.7,1.9,2469.801,13.32,0.069,303.9
2019-10-11T00:40:15,42.805,6.029,-0.055,0.015,-0.048,98.0,113.0,97.0,13.3,1505.3,324.7,-0.7,1.8,2469.822,13.33,0.057,285.3
2019-10-11T00:43:16,42.805,6.029,-0.066,0.047,-0.031,99.0,111.0,98.0,13.3,1505.3,326.0,-0.7,1.8,2469.785,13.33,0.081,305.5
2019-10-11T00:46:17,42.805,6.029,-0.017,0.035,0.0,101.0,112.0,98.0,13.4,1505.3,328.7,-0.7,1.9,2469.839,13.33,0.038,334.1
2019-10-11T00:49:18,42.805,6.029,-0.049,0.022,-0.051,100.0,111.0,98.0,13.3,1505.3,324.2,-0.7,1.8,2469.813,13.33,0.053,294.2
2019-10-11T00:52:19,42.805,6.029,-0.045,0.042,-0.038,101.0,113.0,98.0,13.3,1505.3,327.0,-0.7,1.8,2469.879,13.33,0.061,313.0
2019-10-11T00:55:21,42.805,6.029,-0.052,0.039,-0.021,100.0,112.0,99.0,13.4,1505.3,323.9,-0.7,1.8,2469.866,13.33,0.064,306.9
2019-10-11T00:58:21,42.805,6.029,-0.065,0.038,-0.023,100.0,113.0,97.0,13.3,1505.3,328.2,-0.7,1.8,2469.87,13.33,0.075,300.3
2019-10-11T01:01:22,42.805,6.029,-0.057,0.03,-0.039,102.0,111.0,98.0,13.3,1505.3,325.7,-0.7,1.9,2469.864,13.33,0.064,297.8
2019-10-11T01:04:23,42.805,6.029,-0.092,0.031,-0.019,102.0,110.0,97.0,13.4,1505.3,327.3,-0.7,1.8,2469.853,13.33,0.097,288.6
2019-10-11T01:07:24,42.805,6.029,-0.072,0.02,-0.037,101.0,112.0,97.0,13.4,1505.3,323.4,-0.7,1.8,2469.831,13.33,0.074,285.5
2019-10-11T01:10:25,42.805,6.029,-0.03,0.051,-0.011,101.0,111.0,99.0,13.4,1505.3,328.4,-0.7,1.8,2469.848,13.33,0.059,329.5
2019-10-11T01:13:26,42.805,6.029,-0.027,0.043,-0.008,99.0,114.0,97.0,13.4,1505.3,327.9,-0.7,1.8,2469.88,13.33,0.05,327.9
2019-10-11T01:16:27,42.805,6.029,-0.054,0.038,-0.024,99.0,114.0,98.0,13.4,1505.3,324.6,-0.7,1.8,2469.901,13.33,0.066,305.1
2019-10-11T01:19:28,42.805,6.029,-0.059,0.04,-0.014,102.0,114.0,97.0,13.3,1505.3,325.9,-0.7,1.8,2469.869,13.33,0.071,304.1
2019-10-11T01:22:29,42.805,6.029,-0.055,0.02,-0.023,99.0,112.0,99.0,13.4,1505.3,323.0,-0.7,1.8,2469.869,13.33,0.058,290.0
2019-10-11T01:25:30,42.805,6.029,-0.039,0.021,-0.042,101.0,110.0,97.0,13.4,1505.3,328.1,-0.7,1.8,2469.89,13.33,0.044,298.3
2019-10-11T01:28:31,42.805,6.029,-0.06,0.036,0.001,102.0,112.0,98.0,13.4,1505.3,324.9,-0.7,1.9,2469.888,13.33,0.069,301.0
2019-10-11T01:31:32,42.805,6.029,-0.042,0.031,-0.008,100.0,113.0,98.0,13.4,1505.3,323.8,-0.7,1.8,2469.88,13.33,0.052,306.4
2019-10-11T01:34:33,42.805,6.029,-0.035,0.043,-0.013,99.0,114.0,97.0,13.3,1505.3,325.8,-0.7,1.8,2469.908,13.33,0.055,320.9
2019-10-11T01:37:34,42.805,6.029,-0.065,0.03,-0.036,99.0,115.0,98.0,13.4,1505.3,325.0,-0.7,1.8,2469.912,13.33,0.071,294.8
2019-10-11T01:40:35,42.805,6.029,-0.036,0.035,-0.037,100.0,115.0,97.0,13.4,1505.3,328.6,-0.7,1.8,2469.911,13.33,0.05,314.2
2019-10-11T01:43:36,42.805,6.029,-0.028,0.045,-0.028,100.0,114.0,98.0,13.3,1505.3,325.1,-0.7,1.8,2469.889,13.33,0.053,328.1
2019-10-11T01:46:37,42.805,6.029,-0.078,0.018,-0.059,99.0,113.0,98.0,13.4,1505.3,323.5,-0.7,1.8,2469.924,13.33,0.08,283.0
2019-10-11T01:49:38,42.805,6.029,-0.053,0.03,-0.049,99.0,114.0,97.0,13.3,1505.3,323.6,-0.7,1.8,2469.924,13.33,0.06,299.5
2019-10-11T01:52:39,42.805,6.029,-0.056,0.039,-0.047,100.0,114.0,98.0,13.3,1505.3,327.9,-0.7,1.8,2469.903,13.33,0.068,304.9
2019-10-11T01:55:40,42.805,6.029,-0.051,0.033,-0.039,100.0,114.0,98.0,13.4,1505.3,323.8,-0.7,1.8,2469.884,13.33,0.06,302.9
2019-10-11T01:58:41,42.805,6.029,-0.049,0.057,-0.018,99.0,114.0,99.0,13.4,1505.3,326.5,-0.7,1.8,2469.914,13.33,0.075,319.3
2019-10-11T02:01:42,42.805,6.029,-0.046,0.015,-0.028,100.0,108.0,98.0,13.3,1505.3,324.9,-0.7,1.8,2469.88,13.33,0.048,288.1
